"Pseudo-MPEC" for P10LqA3

Created 2019 Jan 15 15:18:36 UT using Find_Orb

Click here for an explanation of pseudo-MPECs

 
 Astrometry: 
     P10LqA3  C2019 01 11S4=HPq2[npK*t0IM4fp9KeMI5,-l''EpxGFAstrometryp4[d*`HF51
     P10LqA3  C2019 01 11r9yw$F93-_n5+3,]@TG%:J]?vCa\;T58X;9K(1Q5pIIVh,wB.V62F51
     P10LqA3  C2019 01 11RK%E^redacted;t8/#8@.NjWQGE7xAyTX1Gg?^8/kdhjHc(1f@,NF51
     P10LqA3  C2019 01 12.22546 06 50 20.55 +65 15 27.5    ~1C6I 20.5 GVNEOCPI52
     P10LqA3  C2019 01 12.22793 06 50 19.63 +65 15 41.1    ~1C6I 21.2 GVNEOCPI52
     P10LqA3  C2019 01 12.22869 06 50 19.33 +65 15 45.4    ~1C6I 21.7 GVNEOCPI52
     P10LqA3  C2019 01 12.22945 06 50 19.04 +65 15 49.4    ~1C6I 21.0 GVNEOCPI52
     P10LqA3 1C2019 01 14kuLDO^VQOi9Z\'$^j,p0'^ORD)PONKUrUn(,tXOlKdORhgCu]-V9658
     P10LqA3 1C2019 01 14?pGNiVBKp]clicklc.VlaDY^sqkO075V'WRNTOq0qBMhZ?+huw)s658
     P10LqA3 1C2019 01 148JeHRC!,qU[h?Sdlux1A`WJZgl'oYWa)C/5fdB7?WY_dw+_v=?=W658
     P10LqA3 pC2019 01 143F*tP']?GH;^As=]nfwj]pa:G),ep2R=herepGwc@D16\S/S3FHyL01
     P10LqA3 pC2019 01 14o]74-I@J@FK=clu\x(k,;kToCF+k\:7s(EwHI=HO41u*`W]hi*GCL01
     P10LqA3 pC2019 01 14AO5nW4kY8b'gQmb[Ssvu-B*3gNqLl,;;=*,QBI2c%%[3xforT/s;L01
     P10LqA3 KC2019 01 15M9T@yo[SAmuj^D_=Zr;4'hOp8OLN#A1t@[U74P^dud?$@yv[gXJ=291
     P10LqA3 KC2019 01 15/25),p8C+h\IcK]$k6UM$3QuomAJ7E3#[0+T-jwi9:jeQnVhI]l6291
     P10LqA3 KC2019 01 15MTxPi::tIHekX:[Cl*T4-kxZG^IUexplanationHvcF',au[dwFd291

Station data:
(291) LPL/Spacewatch II  (N31.961669 W111.599905)  US/Arizona.  Observers J.
   V. Scotti, R. S. McMillan. 1.8-m f/2.7 reflector + CCD.
(658) Dominion Astrophysical Observatory  (N48.519987 W123.417000)
   Canada/BritColumbia. 1.82-m Plaskett reflector.
(F51) Pan-STARRS 1, Haleakala  (N20.707235 W156.255910)  US/Hawaii.
   Observers N. Primak, A. Schultz, S. Watters, J. Thiel, T. Goggia. Measurer
   PS1 Science Consortium. 1.8-m Ritchey-Chrétien + CCD.
(I52) Steward Observatory, Mt. Lemmon Station  (N32.442547 W110.788920)
   US/Arizona.  Observers B. M. Africano, E. J. Christensen, G. A. Farneth,
   D. C. Fuls, A. R. Gibbs, A. D. Grauer, H. Groeller, J. A. Johnson, R. A.
   Kowalski, S. M. Larson, G. J. Leonard, R. L. Seaman, F. C. Shelly. 1.0-m
   reflector + CCD.
(L01) Višnjan Observatory, Tičan  (N45.290900 E13.749300)  Croatia.
   Observers K. Korlević, E. Pettarin. Measurer E. Pettarin. 1.0-m f/2.9
   reflector + CCD.

Orbital elements:  P10LqA3
   Perihelion 2019 Mar 14.573159 +/- 0.107 TT = 13:45:20 (JD 2458557.073159)
Epoch 2019 Jan 15.0 TT = JDT 2458498.5   Earth MOID: 0.0859   Ve: 0.0452
M 339.71860132 +/- 0.46             (J2000 ecliptic)          AutoNEOCP
n   0.34625755 +/- 0.00744          Peri.  144.56071 +/- 0.22
a   2.00849094 +/- 0.0288           Node    49.66860 +/- 0.26
e   0.6214717 +/- 0.00622           Incl.    9.05081 +/- 0.09
P   2.85                   H 22.5   G  0.15   U  9.4  
q 0.76027060 +/- 0.00164    Q 3.25671129 +/- 0.0602
From 16 observations 2019 Jan. 11-15; mean residual 0".30
Residuals in arcseconds: 
190111 F51  .18+  .20+    190112 I52  .35-  .24-    190114 L01  .31+  .40-    
190111 F51  .19+  .16+    190114 658  .16-  .42+    190115 291  .11+  .28-    
190111 F51  .06-  .46+    190114 658  .01-  .44+    190115 291  .04-  .14+    
190112 I52  .26+  .74-    190114 658  .19-  .35+    190115 291  .01+  .06+    
190112 I52  .03-  .39-    190114 L01  .53-  .24-    
190112 I52  .22-  .16-    190114 L01  .50+  .03+    

Ephemerides (geocentric):
Date (UTC) HH   RA              Dec         delta   r     elong  mag " sig PA
---- -- -- --  -------------   -----------  ------ ------ -----  --- ---- ---
2019 01 15 15  06 25 28.323   +70 30 43.32  .21611 1.1326 129.2 21.1 .203 146
2019 01 15 16  06 25 03.653   +70 34 45.44  .21588 1.1322 129.1 21.1 .209 145
2019 01 15 17  06 24 38.777   +70 38 47.75  .21565 1.1318 129.0 21.1 .215 145
2019 01 15 18  06 24 13.692   +70 42 50.25  .21541 1.1314 128.9 21.1 .221 144
2019 01 15 19  06 23 48.395   +70 46 52.94  .21518 1.1310 128.8 21.1 .227 144
2019 01 15 20  06 23 22.884   +70 50 55.81  .21495 1.1306 128.7 21.1 .233 143
2019 01 15 21  06 22 57.156   +70 54 58.87  .21472 1.1302 128.6 21.1 .239 143
2019 01 15 22  06 22 31.209   +70 59 02.10  .21449 1.1298 128.5 21.1 .245 143
2019 01 15 23  06 22 05.041   +71 03 05.51  .21426 1.1294 128.4 21.1 .251 142
2019 01 16 00  06 21 38.647   +71 07 09.08  .21403 1.1290 128.4 21.1 .258 142
2019 01 16 01  06 21 12.027   +71 11 12.83  .21380 1.1286 128.3 21.1 .264 142
2019 01 16 02  06 20 45.176   +71 15 16.74  .21357 1.1282 128.2 21.1 .270 141
2019 01 16 03  06 20 18.093   +71 19 20.82  .21334 1.1278 128.1 21.1 .277 141
2019 01 16 04  06 19 50.774   +71 23 25.05  .21311 1.1274 128.0 21.1 .283 140
2019 01 16 05  06 19 23.216   +71 27 29.44  .21288 1.1270 127.9 21.1 .290 140
2019 01 16 06  06 18 55.417   +71 31 33.98  .21265 1.1266 127.8 21.1 .296 140
2019 01 16 07  06 18 27.373   +71 35 38.67  .21243 1.1262 127.7 21.1 .303 140
2019 01 16 08  06 17 59.082   +71 39 43.50  .21220 1.1258 127.6 21.1 .309 139
2019 01 16 09  06 17 30.540   +71 43 48.48  .21197 1.1254 127.5 21.1 .316 139
2019 01 16 10  06 17 01.745   +71 47 53.59  .21175 1.1250 127.4 21.1 .323 139
2019 01 16 11  06 16 32.693   +71 51 58.84  .21152 1.1246 127.4 21.1 .329 138
2019 01 16 12  06 16 03.381   +71 56 04.21  .21130 1.1242 127.3 21.1 .336 138
2019 01 16 13  06 15 33.805   +72 00 09.72  .21107 1.1238 127.2 21.1 .343 138
2019 01 16 14  06 15 03.963   +72 04 15.34  .21085 1.1234 127.1 21.1 .350 137
2019 01 16 15  06 14 33.851   +72 08 21.08  .21062 1.1230 127.0 21.1 .357 137
2019 01 16 16  06 14 03.466   +72 12 26.93  .21040 1.1226 126.9 21.1 .363 137
2019 01 16 17  06 13 32.804   +72 16 32.90  .21018 1.1223 126.8 21.1 .370 136
2019 01 16 18  06 13 01.861   +72 20 38.96  .20995 1.1219 126.7 21.1 .377 136
2019 01 16 19  06 12 30.635   +72 24 45.13  .20973 1.1215 126.6 21.1 .384 136
2019 01 16 20  06 11 59.121   +72 28 51.39  .20951 1.1211 126.5 21.1 .391 136
2019 01 16 21  06 11 27.315   +72 32 57.75  .20929 1.1207 126.4 21.1 .398 135
2019 01 16 22  06 10 55.215   +72 37 04.19  .20907 1.1203 126.3 21.1 .404 135
2019 01 16 23  06 10 22.816   +72 41 10.71  .20885 1.1199 126.2 21.1 .411 135
2019 01 17 00  06 09 50.115   +72 45 17.30  .20863 1.1195 126.1 21.1 .418 134
2019 01 17 01  06 09 17.106   +72 49 23.97  .20841 1.1191 126.0 21.1 .425 134
2019 01 17 02  06 08 43.788   +72 53 30.70  .20819 1.1187 126.0 21.1 .432 134
2019 01 17 03  06 08 10.154   +72 57 37.50  .20797 1.1183 125.9 21.1 .439 133
2019 01 17 04  06 07 36.202   +73 01 44.34  .20775 1.1179 125.8 21.1 .445 133
2019 01 17 05  06 07 01.927   +73 05 51.24  .20753 1.1175 125.7 21.1 .452 133
2019 01 17 06  06 06 27.325   +73 09 58.18  .20731 1.1171 125.6 21.1 .459 133
2019 01 17 07  06 05 52.392   +73 14 05.16  .20710 1.1167 125.5 21.1 .466 132
2019 01 17 08  06 05 17.123   +73 18 12.18  .20688 1.1163 125.4 21.1 .472 132
2019 01 17 09  06 04 41.513   +73 22 19.21  .20666 1.1159 125.3 21.1 .479 132
2019 01 17 10  06 04 05.559   +73 26 26.27  .20645 1.1155 125.2 21.1 .486 131
2019 01 17 11  06 03 29.256   +73 30 33.35  .20623 1.1151 125.1 21.1 .492 131
2019 01 17 12  06 02 52.599   +73 34 40.43  .20602 1.1147 125.0 21.1 .499 131
2019 01 17 13  06 02 15.583   +73 38 47.51  .20580 1.1143 124.9 21.1 .505 130
2019 01 17 14  06 01 38.203   +73 42 54.59  .20559 1.1139 124.8 21.1 .512 130